Flag for Poland Past Weather in Lidzbark Warmiński, Poland — Yesterday and Last 2 Weeks

Now
65 °F

Fog.


Feels Like: 65 °F
Forecast: 62 / 80 °F
Wind: 1 mph from West

Location: Ketrzyn

Current Time: Jul 25, 2016 at 8:19:11 AM

Latest Report: Jul 25, 2016 at 7:00 AM


Visibility: 4 mi

Pressure: 30.09 "Hg

Humidity: 96%

Dew Point: 64 °F

Location of Lidzbark WarmińskiLocation

Past Weather in Lidzbark Warmiński — Graph

°F

Lidzbark Warmiński Temperature Yesterday

Maximum temperature yesterday: 76 °F (at 4:00 PM)
Minimum temperature yesterday: 56 °F (at 3:00 AM)
Average temperature yesterday: 67 °F

High & Low Weather Summary for the Past Weeks

 TemperatureHumidityPressure
High83 °F (Jul 11, 2:00 PM)99% (Jul 20, 6:00 AM)30.17 "Hg (Jul 20, 6:00 AM)
Low52 °F (Jul 19, 12:00 AM)44% (Jul 19, 4:00 PM)29.53 "Hg (Jul 15, 1:00 AM)
Average64 °F81%29.96 "Hg
* Reported Jul 10 7:00 AM — Jul 25 7:00 AM, Lidzbark Warmiński, Weather by CustomWeather, © 2016

Note: Actual official high and low records may vary slightly from our data, if they occured in-between our weather recording intervals... More about our weather records

Advertising

Lidzbark Warmiński Weather History for the Previous 24 Hours

Scroll right to see more
 ConditionsComfort  
Time TempWeatherWind HumidityBarometerVisibility
7:00 AM
Mon, Jul 25
65 °FFog.1 mph96%30.09 "Hg4 mi
6:00 AM62 °FCool.3 mph98%30.09 "Hg2 mi
5:00 AM61 °FDuststorm.No wind98%30.09 "Hg0 mi
4:00 AM62 °FFog.1 mph98%30.10 "Hg1 mi
3:00 AM62 °FFog.2 mph97%30.11 "Hg2 mi
2:00 AM62 °FFog.No wind97%30.11 "Hg2 mi
1:00 AM63 °FFog.1 mph95%30.11 "Hg3 mi
12:00 AM64 °FFog.1 mph93%30.12 "Hg4 mi
11:00 PM
Sun, Jul 24
65 °FMild.2 mph91%30.12 "Hg6 mi
10:00 PM68 °FMild.2 mph81%30.11 "Hg11 mi
9:00 PM70 °FMild.1 mph76%30.11 "Hg11 mi
8:00 PM72 °FMild.1 mph71%30.10 "Hg10 mi
7:00 PM74 °FMild.1 mph64%30.09 "Hg8 mi
6:00 PM76 °FMild.2 mph63%30.09 "Hg13 mi
5:00 PM76 °FMild.2 mph63%30.10 "Hg11 mi
4:00 PM76 °FMild.2 mph62%30.11 "Hg12 mi
3:00 PM75 °FMild.2 mph67%30.12 "Hg10 mi
2:00 PM73 °FMild.1 mph69%30.14 "Hg11 mi
1:00 PM71 °FMild.2 mph74%30.13 "Hg9 mi
12:00 PM72 °FMild.2 mph77%30.14 "Hg8 mi
11:00 AM70 °FMild.2 mph81%30.13 "Hg6 mi
10:00 AM69 °FFog.3 mph85%30.14 "Hg6 mi
9:00 AM66 °FFog.2 mph90%30.13 "Hg4 mi
8:00 AM65 °FFog.3 mph96%30.14 "Hg4 mi
Weather by CustomWeather, © 2016

See weather overviewHow to use our weather pages